| time (UTC) | temp F | wind direction | speed MPH | gust MPH | rain 1hr in | rain 24hr in | rain mn in | humidity % | barometer mb |
| 20260504011529 | 39 | 0.0 | 0.0 | 0.00 | 0.00 | 0.00 | 96 | 1006.5 | |
| 20260504010544 | 40 | 0.0 | 0.0 | 0.00 | 0.00 | 0.00 | 95 | 1006.6 | |
| 20260504005519 | 40 | 0.0 | 0.0 | 0.00 | 0.00 | 0.00 | 95 | 1006.6 | |
| 20260504004535 | 40 | 158 | 0.0 | 1.0 | 0.00 | 0.00 | 0.00 | 95 | 1006.7 |
| 20260504003550 | 41 | 0.0 | 0.0 | 0.00 | 0.00 | 0.00 | 95 | 1006.8 | |
| 20260504002526 | 40 | 173 | 0.0 | 1.0 | 0.00 | 0.00 | 0.00 | 95 | 1006.8 |
| 20260504001521 | 40 | 0.0 | 0.0 | 0.00 | 0.01 | 0.00 | 96 | 1007.1 | |
| 20260504000516 | 40 | 0.0 | 0.0 | 0.00 | 0.01 | 0.00 | 97 | 1007.3 | |
| 20260503235651 | 39 | 0.0 | 0.0 | 0.00 | 0.01 | 0.00 | 98 | 1007.3 | |
| 20260503234526 | 38 | 193 | 0.0 | 1.0 | 0.00 | 0.02 | 0.00 | 98 | 1007.4 |
| 20260503233522 | 38 | 0.0 | 0.0 | 0.00 | 0.03 | 0.00 | 98 | 1007.3 | |
| 20260503232517 | 38 | 0.0 | 0.0 | 0.00 | 0.04 | 0.00 | 97 | 1007.5 | |
| 20260503231553 | 38 | 0.0 | 0.0 | 0.00 | 0.04 | 0.00 | 97 | 1007.5 | |
| 20260503230528 | 38 | 0.0 | 0.0 | 0.00 | 0.04 | 0.00 | 97 | 1007.5 | |
| 20260503225524 | 38 | 0.0 | 0.0 | 0.00 | 0.04 | 0.00 | 97 | 1007.6 | |
| 20260503224519 | 37 | 0.0 | 0.0 | 0.00 | 0.04 | 0.00 | 97 | 1007.8 | |
| 20260503223534 | 38 | 0.0 | 0.0 | 0.00 | 0.04 | 0.00 | 96 | 1007.8 | |
| 20260503222530 | 38 | 0.0 | 0.0 | 0.00 | 0.04 | 0.00 | 96 | 1007.7 | |
| 20260503221545 | 38 | 182 | 0.0 | 1.0 | 0.00 | 0.04 | 0.00 | 96 | 1007.7 |
| 20260503220520 | 38 | 0.0 | 0.0 | 0.00 | 0.04 | 0.00 | 96 | 1008.0 | |
| 20260503215535 | 38 | 0.0 | 0.0 | 0.00 | 0.04 | 0.04 | 96 | 1008.2 | |
| 20260503214531 | 37 | 0.0 | 0.0 | 0.00 | 0.04 | 0.04 | 94 | 1008.0 | |
| 20260503213526 | 39 | 0.0 | 0.0 | 0.00 | 0.04 | 0.04 | 94 | 1008.2 | |
| 20260503212521 | 38 | 0.0 | 0.0 | 0.00 | 0.04 | 0.04 | 94 | 1008.2 | |
| 20260503211516 | 39 | 0.0 | 0.0 | 0.00 | 0.04 | 0.04 | 92 | 1008.3 | |
| 20260503210533 | 40 | 0.0 | 0.0 | 0.00 | 0.04 | 0.04 | 91 | 1008.5 | |
| 20260503205528 | 40 | 0.0 | 0.0 | 0.00 | 0.05 | 0.04 | 90 | 1008.6 | |
| 20260503204524 | 41 | 0.0 | 0.0 | 0.00 | 0.05 | 0.04 | 88 | 1008.7 | |
| 20260503203518 | 41 | 176 | 1.0 | 1.0 | 0.00 | 0.05 | 0.04 | 87 | 1008.6 |
| 20260503202533 | 41 | 182 | 0.0 | 1.0 | 0.00 | 0.06 | 0.04 | 88 | 1008.7 |
| 20260503201529 | 42 | 183 | 0.0 | 1.0 | 0.00 | 0.06 | 0.04 | 86 | 1008.6 |
| 20260503200545 | 43 | 178 | 1.0 | 1.0 | 0.00 | 0.06 | 0.04 | 85 | 1008.7 |
| 20260503195519 | 43 | 178 | 0.0 | 1.0 | 0.00 | 0.06 | 0.04 | 83 | 1008.9 |
| 20260503194554 | 44 | 180 | 1.0 | 2.0 | 0.00 | 0.06 | 0.04 | 82 | 1009.0 |
| 20260503193550 | 44 | 185 | 0.0 | 1.0 | 0.00 | 0.06 | 0.04 | 82 | 1009.0 |
| 20260503192524 | 44 | 180 | 0.0 | 1.0 | 0.00 | 0.06 | 0.04 | 81 | 1009.0 |
| 20260503191519 | 45 | 187 | 1.0 | 4.0 | 0.00 | 0.06 | 0.04 | 81 | 1009.1 |
| 20260503190535 | 45 | 191 | 1.0 | 2.0 | 0.00 | 0.06 | 0.04 | 80 | 1009.2 |
| 20260503185530 | 45 | 195 | 0.0 | 1.0 | 0.00 | 0.06 | 0.04 | 79 | 1009.2 |
| 20260503184526 | 45 | 200 | 2.0 | 6.0 | 0.00 | 0.06 | 0.04 | 78 | 1009.1 |
| 20260503183522 | 46 | 199 | 2.0 | 4.0 | 0.00 | 0.06 | 0.04 | 78 | 1008.9 |
| 20260503182517 | 46 | 196 | 2.0 | 3.0 | 0.00 | 0.06 | 0.04 | 77 | 1009.1 |
| 20260503181532 | 46 | 186 | 2.0 | 4.0 | 0.00 | 0.06 | 0.04 | 76 | 1009.1 |
| 20260503180528 | 46 | 193 | 2.0 | 4.0 | 0.00 | 0.06 | 0.04 | 75 | 1009.0 |
| 20260503175523 | 47 | 199 | 2.0 | 3.0 | 0.00 | 0.06 | 0.04 | 74 | 1009.0 |
| 20260503174518 | 47 | 183 | 3.0 | 8.0 | 0.00 | 0.06 | 0.04 | 72 | 1009.1 |
| 20260503173553 | 48 | 196 | 3.0 | 7.0 | 0.00 | 0.06 | 0.04 | 70 | 1009.0 |
| 20260503172528 | 48 | 189 | 2.0 | 3.0 | 0.00 | 0.06 | 0.04 | 69 | 1008.9 |
| 20260503171545 | 49 | 202 | 3.0 | 6.0 | 0.00 | 0.06 | 0.04 | 67 | 1008.8 |
| 20260503170604 | 49 | 196 | 3.0 | 4.0 | 0.00 | 0.06 | 0.04 | 66 | 1008.8 |
| 20260503150523 | 51 | 190 | 2.0 | 3.0 | 0.00 | 0.06 | 0.04 | 59 | 1009.9 |
| 20260503130527 | 48 | 113 | 2.0 | 7.0 | 0.00 | 0.06 | 0.04 | 57 | 1010.9 |
| 20260503110530 | 44 | 234 | 2.0 | 4.0 | 0.00 | 0.06 | 0.04 | 61 | 1012.0 |
| 20260503081529 | 42 | 201 | 1.0 | 3.0 | 0.00 | 0.06 | 0.04 | 67 | 1012.6 |
| 20260503080544 | 41 | 31 | 2.0 | 4.0 | 0.00 | 0.06 | 0.04 | 69 | 1012.7 |
| 20260503072525 | 41 | 237 | 1.0 | 3.0 | 0.00 | 0.06 | 0.04 | 71 | 1012.5 |
| 20260503071519 | 41 | 230 | 1.0 | 7.0 | 0.00 | 0.06 | 0.04 | 71 | 1012.6 |
| 20260503070535 | 41 | 250 | 2.0 | 6.0 | 0.00 | 0.06 | 0.04 | 72 | 1012.3 |
| 20260503054518 | 41 | 232 | 2.0 | 4.0 | 0.00 | 0.06 | 0.04 | 75 | 1012.0 |
| 20260503053614 | 41 | 152 | 1.0 | 4.0 | 0.00 | 0.06 | 0.04 | 76 | 1011.9 |
| 20260503052529 | 40 | 207 | 1.0 | 4.0 | 0.00 | 0.06 | 0.04 | 77 | 1012.0 |
| 20260503051525 | 40 | 180 | 1.0 | 4.0 | 0.00 | 0.06 | 0.04 | 77 | 1012.0 |
| 20260503050520 | 40 | 228 | 1.0 | 2.0 | 0.00 | 0.06 | 0.04 | 78 | 1012.0 |
| 20260503045536 | 40 | 224 | 1.0 | 6.0 | 0.00 | 0.06 | 0.04 | 78 | 1011.9 |
| 20260503044531 | 41 | 222 | 2.0 | 6.0 | 0.00 | 0.06 | 0.04 | 77 | 1012.0 |
| 20260503043527 | 41 | 242 | 1.0 | 4.0 | 0.00 | 0.06 | 0.04 | 77 | 1011.9 |
| 20260503042522 | 41 | 221 | 1.0 | 3.0 | 0.00 | 0.06 | 0.04 | 77 | 1011.7 |
| 20260503041517 | 41 | 160 | 1.0 | 4.0 | 0.00 | 0.06 | 0.04 | 77 | 1011.6 |
| 20260503040533 | 41 | 216 | 1.0 | 4.0 | 0.00 | 0.06 | 0.04 | 78 | 1011.6 |
| 20260503035548 | 41 | 207 | 1.0 | 3.0 | 0.00 | 0.06 | 0.04 | 79 | 1011.4 |
| 20260503034523 | 41 | 237 | 1.0 | 4.0 | 0.00 | 0.06 | 0.04 | 80 | 1011.3 |
| 20260503033518 | 41 | 233 | 1.0 | 2.0 | 0.00 | 0.06 | 0.04 | 81 | 1011.2 |
| 20260503032554 | 41 | 209 | 1.0 | 3.0 | 0.00 | 0.06 | 0.04 | 82 | 1011.2 |
| 20260503031529 | 41 | 221 | 1.0 | 4.0 | 0.00 | 0.06 | 0.04 | 82 | 1011.3 |
| 20260503030525 | 41 | 236 | 1.0 | 3.0 | 0.00 | 0.06 | 0.04 | 84 | 1011.1 |
| 20260503025520 | 41 | 211 | 0.0 | 1.0 | 0.00 | 0.06 | 0.04 | 84 | 1011.1 |
| 20260503024515 | 41 | 163 | 1.0 | 2.0 | 0.00 | 0.06 | 0.04 | 84 | 1011.1 |
| 20260503023551 | 41 | 194 | 0.0 | 1.0 | 0.00 | 0.06 | 0.04 | 86 | 1011.1 |
| 20260503022546 | 41 | 178 | 0.0 | 1.0 | 0.00 | 0.06 | 0.04 | 86 | 1011.3 |
| 20260503021521 | 41 | 112 | 1.0 | 3.0 | 0.00 | 0.06 | 0.04 | 86 | 1011.2 |
| 20260503020517 | 41 | 197 | 1.0 | 2.0 | 0.00 | 0.06 | 0.04 | 86 | 1011.1 |
| 20260503015532 | 41 | 176 | 1.0 | 3.0 | 0.00 | 0.06 | 0.04 | 86 | 1011.0 |
| 20260503014528 | 41 | 207 | 0.0 | 2.0 | 0.00 | 0.06 | 0.04 | 87 | 1010.9 |
| 20260503013522 | 41 | 192 | 0.0 | 1.0 | 0.00 | 0.06 | 0.04 | 87 | 1010.8 |
| 20260503012558 | 41 | 213 | 2.0 | 4.0 | 0.00 | 0.06 | 0.04 | 87 | 1010.9 |